Weather in Novikovo

Russia / Sakhalin District     46°21′53″N   143°21′57″E
temp.,
°C
wind,
m/s
gust,
m/s
humid.,
%
clouds,
%
prec.,
mm/h
press.,
hPa
HPBL,
m
28 september, tue
tue2823:00+15s5580100 0.0 102175
02:00+15s6880100 0.0 1020182
05:00+15s6883100 0.0 1019181
08:00+15ssw6786100 0.0 1019129
11:00+15ssw6886100 0.0 1019147
14:00+15sw6883100 0.0 1018160
17:00+16ssw5682100 0.0 101888
20:00+15s5580100 0.0 101973
29 september, wed
wed2923:00+15ssw5680100 0.0 101981
02:00+15s5679100 0.0 101877
05:00+15ssw448387 0.0 101841
08:00+15ssw33865 0.0 101829
11:00+15s33840 0.0 101843
14:00+15s448282 0.0 101667
17:00+15se4487100 0.0 1015167
20:00+14se4585100 0.0 1015109
30 september, thu
thu3023:00+15se6788100 0.0 1014152
02:00+15se71088100 0.0 1012267
05:00+15sse81089100 0.1 1010305
08:00+14se81190100 0.5 1009433
11:00+14sse101297100 9.8 1007697
14:00+14sse111695100 12.5 1004829
17:00+15s81293100 23.2 1002331
20:00+15s81291100 0.8 1003245
1 october, fri
fri123:00+15nnw5697100 3.0 1003132
02:00+14nw79910 0.0 1007303
05:00+14w68900 0.0 1009249
08:00+14w56851 0.0 1010174
11:00+14wnw34790 0.0 101184
14:00+15w22680 0.0 101242
17:00+15sse23635 0.0 101157
20:00+15s227796 0.0 101311
2 october, sat
sat223:00+15ese6781100 0.0 101296
02:00+14ene5582100 0.0 101393
05:00+14ene4584100 0.1 1012114
08:00+14ene4688100 0.0 1012197
11:00+14ne5786100 0.0 1012248
14:00+14nne5683100 0.0 1010198
17:00+14n7883100 0.0 1010358
20:00+12nne7983100 0.0 1011352